User: anonymous   Login
Location: Lawrence Hall of Science
(37.8785°N, 122.2415°W)
Time: 04:32:13
(UTC-07:00)
Language:

ARGOS - Orbit

View from above orbital plane
View from above orbital plane
View from above satellite
View from above satellite

Ground track
Ground track

The orbit data is extracted from the following two-line orbital elements,

1 25634U 99008A   15210.16318418  .00000010  00000-0  25517-4 0  9992
2 25634 098.7122 276.9621 0010843 038.7059 013.9871 14.19251532850737
Epoch (UTC): 29 July 2015 03:54:59
Eccentricity: 0.0010843
inclination: 98.7122°
perigee height: 820 km
apogee height: 836 km
right ascension of ascending node: 276.9621°
argument of perigee: 38.7059°
revolutions per day: 14.19251532
mean anomaly at epoch: 13.9871°
orbit number at epoch: 85073

The dashed part of the orbit path shows where the satellite is in the earth's shadow,  

DLR